Zurück zum Katalog

STARLINK-31956

AktivKommunikationVLEO
NORAD 59930·PAYLOAD·🇺🇸 United States

Gestartet Jun 1, 2024 von Cape Canaveral Space Force Station

Loading…

Nächste Überflüge (nächste 24 Stunden)

TLE

AktuellSource: CelesTrak SupGP

Epoche: Sep 14, 2026, 21:19 UTC

1 59930C 24106J   26257.88868056 -.00014089  00000+0 -51031-3 0  2573
2 59930  43.0014 343.9966 0001359 267.6609 275.2496 15.27585437    17

Verfolge STARLINK-31956 in Echtzeit mit AllMySat

Download on the App Store